User: anonymous   Login
Location: York
(31.8935°S, 116.7682°E)
Time: 22:41:16
(UTC+08:00)
Language:

PSAT 2 - Orbit

View from above orbital plane
View from above orbital plane
View from above satellite
View from above satellite

Ground track
Ground track

The orbit data is extracted from the following two-line orbital elements,

1 44354U 19036R   21214.24168757  .00017074  00000-0  22002-3 0  9997
2 44354  28.5252 181.4167 0319252  53.1029 309.8383 15.15227753115926
Epoch (UTC): 02 August 2021 05:48:01
Eccentricity: 0.0319252
inclination: 28.5252°
perigee height: 300 km
apogee height: 740 km
right ascension of ascending node: 181.4167°
argument of perigee: 53.1029°
revolutions per day: 15.15227753
mean anomaly at epoch: 309.8383°
orbit number at epoch: 11592

The dashed part of the orbit path shows where the satellite is in the earth's shadow,  

DLR